Volver al catálogo

DELTA 1 DEB

ActivoPO
NORAD 21501·DEBRIS·🇺🇸 United States

Lanzado Jun 12, 1975 desde Vandenberg Space Force Base

Loading…

Próximos Pases (próximas 24 horas)

TLE

ActualizadoSource: Space-Track

Época: Sep 14, 2026, 14:47 UTC

1 21501U 75052FW  26257.61638515  .00000130  00000-0  63960-3 0  9996
2 21501  99.7893 137.3818 0551016   9.4040  18.0756 12.47855365608515

Sigue DELTA 1 DEB en tiempo real con AllMySat

Download on the App Store